When you browse on this site, cookies collect data to enhance your experience and personalize the content and advertising you see.
Visit our Privacy Policy to learn more. By continuing to use the site, you agree to this use of cookies and data.
  • En España
  • Lista de países
  • Para 7 días
  • Temperatura del agua
  • El tiempo en el mapa
  • Informadores
  • user-avatar
    Iniciar sesión

    Tiempo cada hora Naftalan

    Hoy, 7 Abril, Martes

    Tiempo Temperatura Precipitaciones Viento Presión Humedad
    00:00 +6°C° 1.3 mm 7 mps 774 mmHg 76%
    01:00 +6°C° 1.2 mm 7 mps 774 mmHg 76%
    02:00 +5°C° 1.2 mm 7 mps 774 mmHg 76%
    03:00 +5°C° 1.2 mm 7 mps 775 mmHg 76%
    04:00 +5°C° 0.7 mm 7 mps 775 mmHg 77%
    05:00 +5°C° 0.7 mm 7 mps 775 mmHg 78%
    06:00 +4°C° 0.7 mm 7 mps 776 mmHg 80%
    07:00 +4°C° 0.3 mm 7 mps 776 mmHg 79%
    08:00 +4°C° 0.3 mm 8 mps 776 mmHg 79%
    09:00 +4°C° 0.3 mm 8 mps 777 mmHg 78%
    10:00 +4°C° 1.2 mm 7 mps 777 mmHg 82%
    11:00 +4°C° 1.2 mm 7 mps 777 mmHg 86%
    12:00 +3°C° 1.2 mm 6 mps 777 mmHg 89%
    13:00 +3°C° 0.6 mm 6 mps 776 mmHg 89%
    14:00 +3°C° 0.6 mm 7 mps 776 mmHg 88%
    15:00 +4°C° 0.6 mm 7 mps 775 mmHg 87%
    16:00 +3°C° 0.1 mm 7 mps 776 mmHg 87%
    17:00 +3°C° 0.1 mm 7 mps 776 mmHg 87%
    18:00 +3°C° 0.1 mm 7 mps 776 mmHg 86%
    19:00 +2°C° 0.4 mm 8 mps 776 mmHg 87%
    20:00 +2°C° 0.4 mm 8 mps 777 mmHg 88%
    21:00 +2°C° 0.4 mm 8 mps 777 mmHg 88%
    22:00 +2°C° 0.5 mm 8 mps 778 mmHg 85%
    23:00 +3°C° 0.5 mm 7 mps 778 mmHg 81%

    Mañana, 8 Abril, Miércoles

    Tiempo Temperatura Precipitaciones Viento Presión Humedad
    00:00 +4°C° 0.5 mm 6 mps 778 mmHg 78%
    01:00 +4°C° 0.2 mm 6 mps 778 mmHg 75%
    02:00 +3°C° 0.2 mm 6 mps 778 mmHg 72%
    03:00 +3°C° 0.2 mm 6 mps 778 mmHg 69%
    04:00 +3°C° 0 mm 6 mps 779 mmHg 68%
    05:00 +4°C° 0 mm 6 mps 779 mmHg 68%
    06:00 +5°C° 0 mm 5 mps 780 mmHg 67%
    07:00 +5°C° 0 mm 5 mps 780 mmHg 63%
    08:00 +6°C° 0 mm 5 mps 780 mmHg 58%
    09:00 +7°C° 0 mm 4 mps 780 mmHg 54%
    10:00 +7°C° 0 mm 4 mps 780 mmHg 51%
    11:00 +7°C° 0 mm 4 mps 780 mmHg 49%
    12:00 +8°C° 0 mm 4 mps 779 mmHg 47%
    13:00 +8°C° 0 mm 4 mps 779 mmHg 47%
    14:00 +8°C° 0 mm 4 mps 778 mmHg 47%
    15:00 +8°C° 0 mm 4 mps 778 mmHg 47%
    16:00 +8°C° 0 mm 5 mps 777 mmHg 50%
    17:00 +7°C° 0 mm 5 mps 777 mmHg 53%
    18:00 +6°C° 0 mm 5 mps 777 mmHg 57%
    19:00 +6°C° 0 mm 5 mps 777 mmHg 59%
    20:00 +6°C° 0 mm 5 mps 776 mmHg 62%
    21:00 +6°C° 0 mm 5 mps 776 mmHg 64%
    22:00 +6°C° 0 mm 5 mps 775 mmHg 67%
    23:00 +6°C° 0 mm 5 mps 775 mmHg 70%

    Pasado mañana, 9 Abril, Jueves

    Tiempo Temperatura Precipitaciones Viento Presión Humedad
    00:00 +6°C° 0 mm 5 mps 774 mmHg 72%
    01:00 +6°C° 0 mm 5 mps 773 mmHg 73%
    02:00 +6°C° 0 mm 4 mps 773 mmHg 75%
    03:00 +6°C° 0 mm 4 mps 772 mmHg 76%
    04:00 +5°C° 0.2 mm 4 mps 772 mmHg 76%
    05:00 +5°C° 0.2 mm 4 mps 771 mmHg 76%
    06:00 +5°C° 0.2 mm 4 mps 771 mmHg 76%
    07:00 +5°C° 0.3 mm 4 mps 771 mmHg 78%
    08:00 +4°C° 0.3 mm 4 mps 770 mmHg 80%
    09:00 +4°C° 0.3 mm 3 mps 770 mmHg 81%
    10:00 +5°C° 0.1 mm 3 mps 770 mmHg 78%
    11:00 +6°C° 0.1 mm 2 mps 769 mmHg 75%
    12:00 +7°C° 0.1 mm 2 mps 769 mmHg 72%
    13:00 +7°C° 0 mm 2 mps 768 mmHg 71%
    14:00 +9°C° 0 mm 1 mps 767 mmHg 71%
    15:00 +9°C° 0 mm 1 mps 767 mmHg 71%
    16:00 +9°C° 0 mm 1 mps 767 mmHg 73%
    17:00 +8°C° 0 mm 2 mps 767 mmHg 76%
    18:00 +8°C° 0 mm 2 mps 767 mmHg 79%
    19:00 +8°C° 0 mm 2 mps 767 mmHg 81%
    20:00 +8°C° 0 mm 2 mps 767 mmHg 83%
    21:00 +7°C° 0 mm 2 mps 767 mmHg 85%
    22:00 +8°C° 0 mm 2 mps 767 mmHg 84%
    23:00 +8°C° 0 mm 2 mps 766 mmHg 83%

    10 Abril, Viernes

    Tiempo Temperatura Precipitaciones Viento Presión Humedad
    00:00 +8°C° 0 mm 2 mps 766 mmHg 82%
    01:00 +9°C° 0 mm 1 mps 766 mmHg 82%
    02:00 +8°C° 0 mm 1 mps 765 mmHg 82%
    03:00 +8°C° 0 mm 1 mps 765 mmHg 83%
    04:00 +7°C° 0 mm 2 mps 765 mmHg 82%
    05:00 +7°C° 0 mm 2 mps 765 mmHg 81%
    06:00 +7°C° 0 mm 2 mps 765 mmHg 80%
    07:00 +8°C° 0 mm 2 mps 765 mmHg 76%
    08:00 +9°C° 0 mm 2 mps 765 mmHg 72%
    09:00 +10°C° 0 mm 2 mps 765 mmHg 68%
    10:00 +12°C° 0 mm 2 mps 765 mmHg 65%
    11:00 +13°C° 0 mm 2 mps 765 mmHg 62%
    12:00 +15°C° 0 mm 2 mps 765 mmHg 59%
    13:00 +14°C° 0 mm 2 mps 764 mmHg 60%
    14:00 +13°C° 0 mm 3 mps 764 mmHg 62%
    15:00 +13°C° 0 mm 4 mps 763 mmHg 64%
    16:00 +12°C° 0 mm 4 mps 763 mmHg 66%
    17:00 +12°C° 0 mm 3 mps 763 mmHg 69%
    18:00 +11°C° 0 mm 3 mps 763 mmHg 71%
    19:00 +11°C° 0 mm 3 mps 764 mmHg 73%
    20:00 +11°C° 0 mm 3 mps 764 mmHg 75%
    21:00 +12°C° 0 mm 2 mps 764 mmHg 77%
    22:00 +10°C° 0 mm 2 mps 764 mmHg 78%
    23:00 +10°C° 0 mm 2 mps 763 mmHg 79%

    11 Abril, Sábado

    Tiempo Temperatura Precipitaciones Viento Presión Humedad
    00:00 +9°C° 0 mm 2 mps 763 mmHg 80%
    01:00 +9°C° 0 mm 2 mps 762 mmHg 79%
    02:00 +10°C° 0 mm 1 mps 762 mmHg 79%
    03:00 +10°C° 0 mm 1 mps 762 mmHg 78%
    04:00 +11°C° 0 mm 1 mps 762 mmHg 76%
    05:00 +11°C° 0 mm 1 mps 762 mmHg 75%
    06:00 +11°C° 0 mm 1 mps 762 mmHg 73%
    07:00 +12°C° 0 mm 1 mps 762 mmHg 69%
    08:00 +13°C° 0 mm 1 mps 762 mmHg 66%
    09:00 +14°C° 0 mm 1 mps 762 mmHg 63%
    10:00 +14°C° 0 mm 1 mps 761 mmHg 61%
    11:00 +15°C° 0 mm 2 mps 761 mmHg 60%
    12:00 +15°C° 0 mm 2 mps 761 mmHg 59%
    13:00 +15°C° 0 mm 2 mps 760 mmHg 60%
    14:00 +15°C° 0 mm 2 mps 760 mmHg 60%
    15:00 +16°C° 0 mm 2 mps 760 mmHg 60%
    16:00 +14°C° 0 mm 3 mps 760 mmHg 64%
    17:00 +13°C° 0 mm 3 mps 760 mmHg 67%
    18:00 +12°C° 0 mm 4 mps 761 mmHg 71%
    19:00 +12°C° 0 mm 3 mps 761 mmHg 74%
    20:00 +11°C° 0 mm 3 mps 762 mmHg 76%
    21:00 +12°C° 0 mm 2 mps 762 mmHg 79%
    22:00 +12°C° 0 mm 2 mps 762 mmHg 80%
    23:00 +12°C° 0 mm 2 mps 762 mmHg 80%

    12 Abril, Domingo

    Tiempo Temperatura Precipitaciones Viento Presión Humedad
    00:00 +10°C° 0 mm 2 mps 763 mmHg 81%
    01:00 +10°C° 0 mm 2 mps 763 mmHg 82%
    02:00 +10°C° 0 mm 2 mps 763 mmHg 83%
    03:00 +10°C° 0 mm 2 mps 763 mmHg 84%
    04:00 +10°C° 0 mm 2 mps 764 mmHg 80%
    05:00 +10°C° 0 mm 3 mps 765 mmHg 76%
    06:00 +10°C° 0 mm 4 mps 765 mmHg 72%
    07:00 +12°C° 0 mm 4 mps 766 mmHg 66%
    08:00 +13°C° 0 mm 4 mps 766 mmHg 61%
    09:00 +15°C° 0 mm 4 mps 767 mmHg 56%
    10:00 +15°C° 0 mm 5 mps 767 mmHg 57%
    11:00 +15°C° 0 mm 5 mps 767 mmHg 58%
    12:00 +15°C° 0 mm 6 mps 768 mmHg 59%
    13:00 +15°C° 0 mm 7 mps 768 mmHg 58%
    14:00 +13°C° 0 mm 8 mps 768 mmHg 56%
    15:00 +13°C° 0 mm 9 mps 768 mmHg 55%
    16:00 +12°C° 0 mm 8 mps 768 mmHg 60%
    17:00 +11°C° 0 mm 7 mps 768 mmHg 64%
    18:00 +11°C° 0 mm 6 mps 769 mmHg 68%
    19:00 +10°C° 0 mm 6 mps 769 mmHg 69%
    20:00 +9°C° 0 mm 5 mps 770 mmHg 69%
    21:00 +9°C° 0 mm 5 mps 770 mmHg 70%
    22:00 +9°C° 0 mm 5 mps 770 mmHg 68%
    23:00 +10°C° 0 mm 4 mps 770 mmHg 67%
    Mostrar más